Flag for United Kingdom Weather past 2 weeks in Brighton, England, United Kingdom

Now
45 °F

Passing clouds.


Feels Like: 41 °F
Forecast: 36 / 48 °F
Wind: 7 mph from North

Location: Shoreham Airport

Current Time: Feb 27, 2015 at 11:47:10 AM

Latest Report: Feb 27, 2015 at 11:20 AM


Visibility: N/A

Pressure: 30.15 "Hg

Humidity: 66%

Dew point: 34 °F

Location of BrightonLocation

Historic Weather in Brighton — Graph

°F

Brighton temperature yesterday

Maximum temperature yesterday: 50 °F (at 1:50 PM)
Minimum temperature yesterday: 43 °F (at 7:50 PM)
Average temperature yesterday: 47 °F

Past Weeks' High & Low Weather Summary

 TemperatureHumidityPressure
High54 °F (Feb 25, 1:20 PM)100% (Feb 16, 4:20 PM)30.74 "Hg (Feb 16, 4:20 PM)
Low28 °F (Feb 18, 7:50 AM)47% (Feb 24, 3:20 PM)29.33 "Hg (Feb 23, 11:50 AM)
Average44 °F82%29.90 "Hg
* Reported Feb 12 10:20 AM — Feb 27 10:50 AM, Brighton, Weather by CustomWeather, © 2015

Note: Actual official high and low records may vary slightly from our data, if they occured in-between our weather recording intervals... More about our weather records

Advertising

Brighton weather history for previous 24 hours

 ConditionsComfort  
Time TempWeatherWind HumidityBarometerVisibility
10:50 AM
Fri, Feb 27
45 °FPassing clouds.7 mph66%30.15 "HgN/A
10:20 AM43 °FSunny.10 mph71%30.15 "Hg10 mi
9:50 AM43 °FSunny.7 mph71%30.15 "Hg10 mi
9:20 AM41 °FSunny.9 mph76%30.15 "Hg10 mi
8:50 AM39 °FSunny.7 mph75%30.12 "Hg10 mi
8:20 AM37 °FSunny.6 mph75%30.12 "Hg10 mi
7:50 AM36 °FSunny.5 mph81%30.12 "Hg10 mi
7:50 PM
Thu, Feb 26
43 °FPassing clouds.13 mph71%29.95 "HgN/A
7:20 PM45 °FPassing clouds.15 mph71%29.92 "HgN/A
6:50 PM45 °FPassing clouds.15 mph71%29.92 "HgN/A
6:20 PM46 °FPassing clouds.17 mph71%29.92 "HgN/A
5:50 PM46 °FPassing clouds.7 mph87%29.89 "HgN/A
5:20 PM46 °FScattered clouds.8 mph82%29.89 "HgN/A
4:50 PM46 °FScattered clouds.12 mph82%29.86 "HgN/A
4:20 PM48 °FScattered clouds.15 mph76%29.86 "HgN/A
3:50 PM48 °FPartly sunny.18 mph76%29.83 "HgN/A
3:20 PM46 °FSleet. Fog.15 mph100%29.83 "Hg6 mi
2:50 PM50 °FLight rain. Fog.8 mph100%29.80 "Hg3 mi
2:20 PM50 °FRain. Fog.10 mph100%29.80 "Hg2 mi
1:50 PM50 °FRain. Fog.9 mph71%29.80 "Hg2 mi
1:20 PM48 °FLight rain. Fog.14 mph100%29.80 "Hg2 mi
12:50 PM48 °FLight rain. Fog.16 mph100%29.83 "Hg2 mi
12:20 PM48 °FLight rain. Fog.14 mph100%29.83 "Hg2 mi
11:50 AM48 °FLight rain. Fog.16 mph100%29.86 "Hg1 mi
11:20 AM48 °FLight rain. Fog.17 mph100%29.86 "Hg1 mi
Weather by CustomWeather, © 2015

See weather overviewHow to use our weather pages